Terug naar catalogus

DELTA 1 DEB

ActiefUNKNOWN
NORAD 14839·DEBRIS·🇺🇸 United States

Gelanceerd Jul 14, 1977 vanaf Cape Canaveral Space Force Station

Loading…

Volgende Passages (komende 24 uur)

TLE

VersSource: Space-Track

Epoch: Sep 14, 2026, 14:12 UTC

1 14839U 77065FU  26257.59204487  .00001174  00000-0  38177-2 0  9992
2 14839  28.9899  35.2473 0977519 159.2574 298.2998 11.92976680170483

Volg DELTA 1 DEB in realtime met AllMySat

Download on the App Store